AAL52L KLAS-KEVW

Flight info

Callsign AAL52L
Flight time 1h 8m
Altitude 35000
Route GIDGT3 VERKN PROMT/N0453F340 LOFOG
Aircraft A321/M-SDE3FGHIRWY/LB1

Departure

Time 2026-05-05 18:24
Airport Harry Reid International Airport (KLAS)

Arrival

Time 2026-05-05 19:32
Airport Evanston-Uinta County Airport-Burns Field (KEVW)
Time Latitude Longitude Altitude Speed Heading
2026-05-05 17:57 36.08545 -115.15510 2120 ft 0 kts 108°
2026-05-05 18:11 36.08549 -115.15522 2121 ft 2 kts 108°
2026-05-05 18:11 36.08553 -115.15540 2122 ft 2 kts 108°
2026-05-05 18:11 36.08558 -115.15558 2122 ft 2 kts 121°
2026-05-05 18:12 36.08569 -115.15572 2123 ft 2 kts 146°
2026-05-05 18:12 36.08582 -115.15578 2123 ft 2 kts 170°
2026-05-05 18:12 36.08598 -115.15579 2122 ft 2 kts 193°
2026-05-05 18:12 36.08606 -115.15575 2122 ft 1 kts 207°
2026-05-05 18:13 36.08611 -115.15572 2122 ft 0 kts 207°
2026-05-05 18:15 36.08600 -115.15579 2122 ft 3 kts 208°
2026-05-05 18:15 36.08569 -115.15598 2124 ft 2 kts 206°
2026-05-05 18:16 36.08565 -115.15601 2124 ft 0 kts 206°
2026-05-05 18:17 36.08564 -115.15601 2124 ft 0 kts 206°
2026-05-05 18:18 36.08541 -115.15615 2125 ft 7 kts 206°
2026-05-05 18:18 36.08501 -115.15666 2128 ft 9 kts 264°
2026-05-05 18:18 36.08561 -115.15728 2129 ft 14 kts 334°
2026-05-05 18:18 36.08668 -115.15784 2129 ft 17 kts 348°
2026-05-05 18:19 36.08799 -115.15731 2122 ft 22 kts 29°
2026-05-05 18:19 36.08950 -115.15642 2115 ft 25 kts 23°
2026-05-05 18:19 36.09121 -115.15552 2108 ft 27 kts 24°
2026-05-05 18:19 36.09299 -115.15453 2101 ft 27 kts 25°
2026-05-05 18:20 36.09433 -115.15375 2096 ft 14 kts 25°
2026-05-05 18:20 36.09522 -115.15324 2092 ft 6 kts 25°
2026-05-05 18:20 36.09575 -115.15294 2090 ft 9 kts 24°
2026-05-05 18:20 36.09640 -115.15257 2088 ft 11 kts 24°
2026-05-05 18:21 36.09720 -115.15211 2086 ft 13 kts 24°
2026-05-05 18:21 36.09793 -115.15234 2085 ft 8 kts 307°
2026-05-05 18:21 36.09798 -115.15246 2085 ft 0 kts 295°
2026-05-05 18:22 36.09802 -115.15255 2085 ft 3 kts 295°
2026-05-05 18:22 36.09819 -115.15309 2085 ft 9 kts 285°
2026-05-05 18:23 36.09798 -115.15393 2089 ft 12 kts 209°
2026-05-05 18:23 36.09607 -115.15498 2096 ft 60 kts 204°
2026-05-05 18:23 36.09016 -115.15834 2121 ft 121 kts 205°
2026-05-05 18:23 36.08085 -115.16367 2165 ft 170 kts 205°
2026-05-05 18:24 36.06982 -115.17000 2620 ft 178 kts 206°
2026-05-05 18:24 36.05985 -115.17863 3204 ft 181 kts 235°
2026-05-05 18:24 36.05642 -115.19328 3829 ft 184 kts 274°
2026-05-05 18:24 36.06063 -115.20779 4303 ft 184 kts 296°
2026-05-05 18:25 36.06582 -115.22289 4562 ft 195 kts 285°
2026-05-05 18:25 36.06824 -115.23389 4731 ft 203 kts 282°
2026-05-05 18:25 36.07247 -115.25750 5077 ft 221 kts 281°
2026-05-05 18:25 36.07829 -115.27567 5245 ft 242 kts 309°
2026-05-05 18:26 36.09247 -115.28748 5555 ft 257 kts 344°
2026-05-05 18:26 36.11032 -115.29189 6108 ft 261 kts 349°
2026-05-05 18:26 36.12799 -115.29623 6706 ft 263 kts 351°
2026-05-05 18:26 36.14616 -115.29539 7279 ft 265 kts 20°
2026-05-05 18:27 36.16164 -115.28345 7804 ft 268 kts 49°
2026-05-05 18:27 36.17189 -115.26362 8144 ft 279 kts 65°
2026-05-05 18:27 36.17959 -115.24147 8676 ft 285 kts 70°
2026-05-05 18:27 36.18648 -115.21859 9311 ft 287 kts 70°
2026-05-05 18:28 36.19598 -115.17077 10470 ft 294 kts 86°
2026-05-05 18:28 36.19654 -115.14466 10748 ft 309 kts 90°
2026-05-05 18:28 36.19644 -115.11762 11013 ft 323 kts 91°
2026-05-05 18:29 36.19627 -115.08918 11425 ft 331 kts 90°
2026-05-05 18:29 36.19615 -115.06067 12002 ft 334 kts 90°
2026-05-05 18:29 36.19608 -115.03218 12613 ft 335 kts 90°
2026-05-05 18:29 36.19604 -115.00351 13227 ft 336 kts 90°
2026-05-05 18:30 36.19601 -114.97468 13797 ft 338 kts 90°
2026-05-05 18:30 36.19599 -114.94524 14344 ft 340 kts 90°
2026-05-05 18:30 36.19597 -114.91598 14851 ft 344 kts 89°
2026-05-05 18:30 36.19594 -114.88632 15358 ft 346 kts 89°
2026-05-05 18:31 36.19591 -114.85645 15858 ft 349 kts 89°
2026-05-05 18:31 36.19588 -114.82654 16349 ft 352 kts 89°
2026-05-05 18:31 36.19584 -114.79620 16836 ft 354 kts 89°
2026-05-05 18:31 36.19579 -114.76560 17337 ft 357 kts 89°
2026-05-05 18:32 36.19572 -114.73481 17794 ft 359 kts 90°
2026-05-05 18:32 36.19564 -114.70414 18237 ft 361 kts 89°
2026-05-05 18:32 36.19557 -114.67297 18686 ft 364 kts 89°
2026-05-05 18:32 36.19548 -114.64173 19138 ft 366 kts 89°
2026-05-05 18:33 36.19541 -114.61024 19571 ft 368 kts 90°
2026-05-05 18:33 36.19534 -114.57844 20001 ft 370 kts 90°
2026-05-05 18:33 36.19526 -114.54667 20422 ft 373 kts 90°
2026-05-05 18:33 36.19516 -114.51457 20828 ft 376 kts 90°
2026-05-05 18:34 36.19505 -114.48209 21269 ft 378 kts 90°
2026-05-05 18:34 36.19494 -114.44955 21677 ft 380 kts 90°
2026-05-05 18:34 36.19482 -114.41705 22092 ft 383 kts 89°
2026-05-05 18:34 36.19470 -114.38390 22500 ft 385 kts 89°
2026-05-05 18:35 36.19456 -114.35091 22883 ft 388 kts 89°
2026-05-05 18:35 36.19441 -114.31747 23281 ft 390 kts 90°
2026-05-05 18:35 36.19429 -114.28384 23675 ft 392 kts 89°
2026-05-05 18:35 36.19687 -114.25028 24050 ft 394 kts 79°
2026-05-05 18:36 36.20387 -114.21756 24408 ft 396 kts 70°
2026-05-05 18:36 36.21483 -114.18600 24747 ft 399 kts 65°
2026-05-05 18:36 36.22689 -114.15517 25084 ft 402 kts 64°
2026-05-05 18:36 36.23924 -114.12410 25388 ft 405 kts 64°
2026-05-05 18:37 36.25169 -114.09264 25701 ft 407 kts 64°
2026-05-05 18:37 36.26413 -114.06109 26006 ft 410 kts 64°
2026-05-05 18:37 36.27657 -114.02935 26311 ft 412 kts 64°
2026-05-05 18:37 36.28905 -113.99734 26617 ft 414 kts 65°
2026-05-05 18:38 36.30170 -113.96484 26904 ft 416 kts 65°
2026-05-05 18:38 36.31414 -113.93286 27193 ft 418 kts 65°
2026-05-05 18:38 36.32684 -113.90012 27476 ft 420 kts 65°
2026-05-05 18:38 36.33948 -113.86749 27739 ft 423 kts 65°
2026-05-05 18:39 36.35228 -113.83447 27989 ft 425 kts 65°
2026-05-05 18:39 36.36522 -113.80103 28224 ft 428 kts 65°
2026-05-05 18:39 36.37817 -113.76756 28449 ft 431 kts 65°
2026-05-05 18:39 36.39111 -113.73401 28678 ft 434 kts 65°
2026-05-05 18:40 36.40416 -113.70019 28892 ft 437 kts 65°
2026-05-05 18:40 36.41737 -113.66596 29140 ft 438 kts 65°
2026-05-05 18:40 36.43037 -113.63213 29424 ft 439 kts 65°
2026-05-05 18:40 36.44355 -113.59785 29625 ft 441 kts 65°
2026-05-05 18:41 36.45686 -113.56348 29851 ft 443 kts 65°
2026-05-05 18:41 36.47018 -113.52914 30253 ft 439 kts 65°
2026-05-05 18:41 36.48338 -113.49507 30629 ft 435 kts 65°
2026-05-05 18:41 36.49644 -113.46124 30830 ft 436 kts 65°
2026-05-05 18:42 36.50975 -113.42667 31002 ft 437 kts 65°
2026-05-05 18:42 36.52271 -113.39303 31178 ft 437 kts 65°
2026-05-05 18:42 36.53593 -113.35875 31322 ft 439 kts 65°
2026-05-05 18:42 36.54918 -113.32429 31430 ft 441 kts 65°
2026-05-05 18:43 36.56229 -113.29020 31552 ft 443 kts 65°
2026-05-05 18:43 36.57572 -113.25518 31702 ft 445 kts 65°
2026-05-05 18:43 36.58891 -113.22080 31836 ft 446 kts 65°
2026-05-05 18:43 36.60231 -113.18581 31981 ft 448 kts 65°
2026-05-05 18:44 36.61575 -113.15065 32111 ft 450 kts 65°
2026-05-05 18:44 36.62919 -113.11552 32233 ft 452 kts 65°
2026-05-05 18:44 36.64257 -113.08047 32354 ft 454 kts 65°
2026-05-05 18:44 36.65627 -113.04456 32502 ft 456 kts 65°
2026-05-05 18:45 36.66974 -113.00923 32620 ft 458 kts 65°
2026-05-05 18:45 36.68355 -112.97295 32726 ft 460 kts 65°
2026-05-05 18:45 36.69709 -112.93733 32835 ft 463 kts 65°
2026-05-05 18:45 36.71085 -112.90112 32945 ft 464 kts 65°
2026-05-05 18:46 36.73849 -112.82822 32954 ft 465 kts 65°
2026-05-05 18:46 36.76615 -112.75506 32958 ft 467 kts 65°
2026-05-05 18:47 36.79405 -112.68111 32971 ft 467 kts 65°
2026-05-05 18:47 36.82204 -112.60677 32973 ft 471 kts 65°
2026-05-05 18:48 36.85043 -112.53218 32967 ft 470 kts 62°
2026-05-05 18:48 36.88726 -112.46336 32979 ft 471 kts 50°
2026-05-05 18:49 36.93441 -112.40646 32970 ft 471 kts 37°
2026-05-05 18:49 36.98929 -112.36205 32975 ft 471 kts 28°
2026-05-05 18:50 37.04593 -112.32125 32986 ft 470 kts 29°
2026-05-05 18:50 37.10252 -112.28010 32977 ft 469 kts 29°
2026-05-05 18:51 37.15872 -112.23882 32994 ft 468 kts 29°
2026-05-05 18:51 37.21487 -112.19745 32972 ft 468 kts 30°
2026-05-05 18:52 37.27082 -112.15617 32965 ft 467 kts 30°
2026-05-05 18:52 37.32646 -112.11362 32975 ft 469 kts 34°
2026-05-05 18:53 37.37781 -112.06317 33012 ft 467 kts 43°
2026-05-05 18:53 37.42239 -112.00481 32994 ft 465 kts 51°
2026-05-05 18:54 37.46290 -111.94154 32970 ft 465 kts 46°
2026-05-05 18:54 37.51337 -111.89116 33008 ft 462 kts 28°
2026-05-05 18:55 37.57202 -111.86160 32880 ft 455 kts 11°
2026-05-05 18:55 37.60300 -111.85499 32725 ft 447 kts
2026-05-05 18:55 37.63353 -111.85085 32556 ft 437 kts
2026-05-05 18:56 37.66381 -111.84688 32360 ft 433 kts
2026-05-05 18:56 37.69381 -111.84289 32147 ft 431 kts
2026-05-05 18:56 37.72381 -111.83882 31915 ft 429 kts
2026-05-05 18:56 37.75339 -111.83477 31665 ft 428 kts
2026-05-05 18:57 37.78295 -111.83064 31446 ft 426 kts
2026-05-05 18:57 37.81207 -111.82658 31222 ft 424 kts
2026-05-05 18:57 37.84135 -111.82250 31017 ft 423 kts
2026-05-05 18:57 37.87065 -111.81840 30787 ft 422 kts
2026-05-05 18:58 37.89948 -111.81436 30562 ft 422 kts
2026-05-05 18:58 37.92858 -111.81029 30331 ft 421 kts
2026-05-05 18:58 37.95802 -111.80616 30073 ft 422 kts
2026-05-05 18:58 37.98721 -111.80205 29814 ft 421 kts
2026-05-05 18:59 38.01619 -111.79795 29557 ft 421 kts
2026-05-05 18:59 38.04524 -111.79388 29293 ft 419 kts
2026-05-05 18:59 38.07440 -111.78976 29023 ft 419 kts
2026-05-05 18:59 38.10310 -111.78570 28765 ft 418 kts
2026-05-05 19:00 38.13182 -111.78165 28502 ft 417 kts
2026-05-05 19:00 38.16087 -111.77754 28233 ft 415 kts
2026-05-05 19:00 38.18928 -111.77353 27971 ft 414 kts
2026-05-05 19:00 38.21791 -111.76949 27699 ft 412 kts
2026-05-05 19:01 38.24641 -111.76547 27438 ft 410 kts
2026-05-05 19:01 38.27457 -111.76147 27173 ft 409 kts
2026-05-05 19:01 38.30299 -111.75743 27006 ft 407 kts
2026-05-05 19:01 38.33111 -111.75343 27000 ft 407 kts
2026-05-05 19:02 38.35927 -111.74943 26995 ft 407 kts
2026-05-05 19:02 38.38739 -111.74541 26990 ft 407 kts
2026-05-05 19:02 38.41540 -111.74143 26989 ft 408 kts
2026-05-05 19:02 38.44390 -111.73738 26984 ft 408 kts
2026-05-05 19:03 38.47200 -111.73338 26984 ft 408 kts
2026-05-05 19:03 38.50026 -111.72935 26979 ft 408 kts
2026-05-05 19:03 38.52856 -111.72533 26971 ft 408 kts
2026-05-05 19:03 38.55653 -111.72134 26979 ft 407 kts
2026-05-05 19:04 38.58455 -111.71732 26980 ft 407 kts
2026-05-05 19:04 38.61282 -111.71328 26974 ft 407 kts
2026-05-05 19:04 38.64082 -111.70927 26979 ft 406 kts
2026-05-05 19:04 38.66922 -111.70519 26981 ft 406 kts
2026-05-05 19:05 38.69722 -111.70116 26977 ft 406 kts
2026-05-05 19:05 38.72505 -111.69716 26976 ft 406 kts
2026-05-05 19:05 38.75326 -111.69312 26973 ft 406 kts
2026-05-05 19:05 38.78119 -111.68910 26970 ft 406 kts
2026-05-05 19:06 38.80947 -111.68504 26970 ft 406 kts
2026-05-05 19:06 38.83742 -111.68100 26964 ft 406 kts
2026-05-05 19:06 38.86554 -111.67696 26964 ft 405 kts
2026-05-05 19:06 38.89377 -111.67291 26957 ft 405 kts
2026-05-05 19:07 38.92177 -111.66886 26960 ft 404 kts
2026-05-05 19:07 38.94958 -111.66482 26956 ft 405 kts
2026-05-05 19:07 38.97758 -111.66077 26954 ft 404 kts
2026-05-05 19:07 39.00550 -111.65673 26953 ft 403 kts
2026-05-05 19:08 39.03339 -111.65270 26946 ft 403 kts
2026-05-05 19:08 39.06117 -111.64867 26954 ft 404 kts
2026-05-05 19:08 39.08888 -111.64465 26954 ft 403 kts
2026-05-05 19:08 39.11713 -111.64054 26953 ft 404 kts
2026-05-05 19:09 39.14485 -111.63651 26951 ft 405 kts
2026-05-05 19:09 39.17296 -111.63243 26955 ft 404 kts
2026-05-05 19:09 39.20077 -111.62837 26954 ft 404 kts
2026-05-05 19:09 39.22890 -111.62428 26951 ft 404 kts
2026-05-05 19:10 39.25682 -111.62022 26951 ft 404 kts
2026-05-05 19:10 39.28457 -111.61616 26951 ft 404 kts
2026-05-05 19:10 39.31243 -111.61211 26950 ft 404 kts
2026-05-05 19:10 39.34056 -111.60800 26949 ft 404 kts
2026-05-05 19:11 39.36836 -111.60393 26948 ft 404 kts
2026-05-05 19:11 39.39646 -111.59981 26949 ft 405 kts
2026-05-05 19:11 39.42419 -111.59576 26945 ft 404 kts
2026-05-05 19:11 39.45222 -111.59164 26948 ft 404 kts
2026-05-05 19:12 39.48012 -111.58753 26947 ft 403 kts
2026-05-05 19:12 39.50807 -111.58345 26946 ft 404 kts
2026-05-05 19:12 39.53622 -111.57931 26946 ft 403 kts
2026-05-05 19:12 39.54558 -111.57794 26946 ft 402 kts
2026-05-05 19:13 39.59181 -111.57114 26951 ft 403 kts
2026-05-05 19:13 39.61971 -111.56704 26948 ft 403 kts
2026-05-05 19:13 39.64755 -111.56291 26951 ft 404 kts
2026-05-05 19:13 39.67533 -111.55882 26953 ft 403 kts
2026-05-05 19:14 39.70345 -111.55469 26956 ft 403 kts
2026-05-05 19:14 39.73112 -111.55062 26955 ft 402 kts
2026-05-05 19:14 39.75891 -111.54650 26954 ft 403 kts
2026-05-05 19:14 39.78690 -111.54234 26956 ft 403 kts
2026-05-05 19:15 39.81461 -111.53822 26960 ft 402 kts
2026-05-05 19:15 39.84231 -111.53413 26963 ft 402 kts
2026-05-05 19:15 39.87031 -111.52998 26961 ft 401 kts
2026-05-05 19:15 39.89790 -111.52587 26966 ft 403 kts
2026-05-05 19:16 39.92584 -111.52172 26971 ft 403 kts
2026-05-05 19:16 39.95358 -111.51760 26846 ft 404 kts
2026-05-05 19:16 39.98163 -111.51342 26577 ft 401 kts
2026-05-05 19:16 40.00909 -111.50934 26403 ft 398 kts
2026-05-05 19:17 40.03665 -111.50523 26508 ft 401 kts
2026-05-05 19:17 40.06453 -111.50106 26534 ft 400 kts
2026-05-05 19:17 40.09211 -111.49695 26487 ft 399 kts
2026-05-05 19:17 40.11943 -111.49287 26469 ft 399 kts
2026-05-05 19:18 40.14713 -111.48872 26151 ft 399 kts
2026-05-05 19:18 40.17454 -111.48463 25681 ft 395 kts
2026-05-05 19:18 40.20164 -111.48055 25212 ft 392 kts
2026-05-05 19:18 40.22890 -111.47647 24737 ft 390 kts
2026-05-05 19:19 40.25574 -111.47244 24260 ft 388 kts
2026-05-05 19:19 40.28248 -111.46843 23790 ft 387 kts
2026-05-05 19:19 40.30907 -111.46443 23321 ft 384 kts
2026-05-05 19:19 40.33525 -111.46051 22862 ft 382 kts
2026-05-05 19:20 40.36182 -111.45651 22399 ft 380 kts
2026-05-05 19:20 40.38801 -111.45258 21947 ft 378 kts
2026-05-05 19:20 40.41399 -111.44867 21494 ft 375 kts
2026-05-05 19:20 40.43967 -111.44481 21043 ft 371 kts
2026-05-05 19:21 40.46519 -111.44096 20594 ft 368 kts
2026-05-05 19:21 40.49051 -111.43714 20138 ft 365 kts
2026-05-05 19:21 40.51550 -111.43338 19687 ft 363 kts
2026-05-05 19:21 40.54060 -111.42958 19227 ft 360 kts
2026-05-05 19:22 40.56531 -111.42584 18762 ft 358 kts
2026-05-05 19:22 40.58996 -111.42213 18305 ft 355 kts
2026-05-05 19:22 40.61438 -111.41843 17850 ft 352 kts
2026-05-05 19:22 40.63850 -111.41476 17406 ft 349 kts
2026-05-05 19:23 40.66277 -111.41107 16948 ft 346 kts
2026-05-05 19:23 40.68641 -111.40738 16512 ft 349 kts
2026-05-05 19:23 40.71154 -111.40205 16074 ft 375 kts
2026-05-05 19:23 40.73745 -111.39587 15630 ft 382 kts
2026-05-05 19:24 40.76351 -111.38957 15191 ft 382 kts
2026-05-05 19:24 40.78943 -111.38325 14745 ft 379 kts
2026-05-05 19:24 40.81521 -111.37698 14302 ft 377 kts
2026-05-05 19:24 40.84093 -111.37074 13855 ft 373 kts
2026-05-05 19:25 40.86633 -111.36460 13415 ft 371 kts
2026-05-05 19:25 40.89180 -111.35843 12969 ft 369 kts
2026-05-05 19:25 40.91713 -111.35231 12523 ft 369 kts
2026-05-05 19:25 40.94230 -111.34621 12084 ft 368 kts
2026-05-05 19:26 40.96728 -111.34015 11645 ft 367 kts
2026-05-05 19:26 40.99235 -111.33407 11203 ft 367 kts
2026-05-05 19:26 41.01748 -111.32797 10762 ft 365 kts
2026-05-05 19:26 41.04246 -111.32188 10481 ft 365 kts
2026-05-05 19:27 41.06726 -111.31584 10457 ft 366 kts
2026-05-05 19:27 41.09210 -111.30968 10450 ft 352 kts 10°
2026-05-05 19:27 41.11535 -111.30356 10454 ft 333 kts 10°
2026-05-05 19:27 41.13739 -111.29770 10452 ft 315 kts 11°
2026-05-05 19:28 41.15833 -111.29215 10456 ft 298 kts 11°
2026-05-05 19:28 41.17811 -111.28694 10454 ft 281 kts 11°
2026-05-05 19:28 41.19589 -111.27817 10421 ft 268 kts 36°
2026-05-05 19:28 41.20719 -111.25925 10243 ft 259 kts 67°
2026-05-05 19:29 41.21269 -111.23743 10090 ft 247 kts 72°
2026-05-05 19:29 41.21772 -111.21628 10000 ft 232 kts 71°
2026-05-05 19:29 41.22312 -111.19629 9554 ft 233 kts 69°
2026-05-05 19:29 41.22906 -111.17637 9173 ft 226 kts 68°
2026-05-05 19:30 41.23483 -111.15799 8889 ft 205 kts 67°
2026-05-05 19:30 41.24023 -111.14111 8578 ft 192 kts 67°
2026-05-05 19:30 41.24530 -111.12544 8300 ft 179 kts 67°
2026-05-05 19:30 41.24999 -111.11100 8047 ft 165 kts 67°
2026-05-05 19:31 41.25444 -111.09731 7837 ft 160 kts 67°
2026-05-05 19:31 41.25880 -111.08395 7633 ft 157 kts 67°
2026-05-05 19:31 41.26328 -111.07050 7490 ft 157 kts 67°
2026-05-05 19:31 41.26761 -111.05710 7320 ft 159 kts 68°
2026-05-05 19:32 41.27189 -111.04368 7159 ft 158 kts 68°
2026-05-05 19:32 41.27552 -111.03241 7125 ft 94 kts 66°
2026-05-05 19:32 41.27716 -111.02732 7133 ft 44 kts 67°
2026-05-05 19:32 41.27832 -111.02380 7129 ft 35 kts 65°
2026-05-05 19:33 41.27810 -111.02219 7127 ft 17 kts 155°
2026-05-05 19:33 41.27742 -111.02286 7131 ft 12 kts 246°
2026-05-05 19:33 41.27712 -111.02377 7135 ft 8 kts 247°
2026-05-05 19:33 41.27692 -111.02441 7137 ft 5 kts 247°
2026-05-05 19:34 41.27676 -111.02492 7140 ft 8 kts 248°
2026-05-05 19:34 41.27638 -111.02608 7141 ft 16 kts 248°
2026-05-05 19:34 41.27593 -111.02744 7140 ft 16 kts 245°
2026-05-05 19:35 41.27512 -111.02983 7134 ft 8 kts 228°
2026-05-05 19:35 41.27462 -111.02984 7137 ft 5 kts 154°
2026-05-05 19:35 41.27434 -111.02967 7139 ft 3 kts 156°
2026-05-05 19:35 41.27433 -111.02966 7139 ft 0 kts 156°
2026-05-05 19:36 41.27434 -111.02967 7139 ft 0 kts 156°
2026-05-05 19:36 41.27377 -111.02954 7142 ft 4 kts 266°
2026-05-05 19:36 41.27378 -111.02977 7140 ft 0 kts 247°